(210912) = 2001 SR243

Discovered at Socorro on 2001-09-19 by LINEAR.

Orbit

Orbit type: Main Belt

Note: WebGL enabled browser required.

epoch2024-03-31.0
epoch JD2460400.5
perihelion date2023-02-20.50500
perihelion JD2459996.00500
argument of perihelion (°)232.97393
ascending node (°)180.45166
inclination (°)13.04046
eccentricity0.1878150
perihelion distance (AU)2.4584550
Tisserand w.r.t. Jupiter3.2
ΔV w.r.t. Earth (km/sec)10.6
semimajor axis (AU)3.0269643
mean anomaly (°)75.70177
mean daily motion (°/day)0.18715130
aphelion distance (AU)3.595
period (years)5.27
P-vector [x]0.59602857
P-vector [y]0.78958164
P-vector [z]0.14598211
Q-vector [x]-0.80296126
Q-vector [y]0.58649688
Q-vector [z]0.10618204
absolute magnitude15.48
phase slope0.15
uncertainty0
referenceMPEC 2024-E23
observations used741
oppositions16
arc length (days)8203
first opposition used2001
last opposition used2024
residual rms (arc-secs)0.69
perturbers coarse indicatorM-v
perturbers precise indicator003Ek
first observation date used2001-09-16.0
last observation date used2024-03-02.0
computer nameMPCLINUX
JD of orbit computation2456937.171600
perihelion JD uncertainty (days)7.2296E-05
argument of perihelion uncertainty (°)2.2399E-05
ascending node uncertainty (°)1.7209E-05
inclination uncertainty (°)5.4701E-06
eccentricity uncertainty 4.3923E-08
perihelion distance uncertainty (AU)1.2387E-07
Minimum Orbit Intersection Distances (in AU)
for orbit epoch: 2460400.5, reference: E2024-GH2
Mercury2.14817
Venus1.74701
Earth1.49298
Mars1.03862
Jupiter1.92983
Saturn6.22328
Uranus15.1057
Neptune27.0782

Observations

755 total observations over interval: 2001 09 16.38557 – 2024 03 02.452938
These data are available for download (format description).

Date (UT) J2000 RA J2000 Dec Magn Location Ref
2001 09 16.38557 01 47 36.86 +05 53 16.5 20.0   704 – Lincoln Laboratory ETS, New Mexico MPS 44008
2001 09 16.39992 01 47 36.53 +05 53 08.9 19.9   704 – Lincoln Laboratory ETS, New Mexico MPS 44008
2001 09 16.41434 01 47 36.27 +05 53 02.6 19.9   704 – Lincoln Laboratory ETS, New Mexico MPS 44008
2001 09 19.34919 01 46 45.04 +05 27 47.5 18.9   704 – Lincoln Laboratory ETS, New Mexico MPS 36793
2001 09 19.36330 01 46 44.77 +05 27 40.6 18.7   704 – Lincoln Laboratory ETS, New Mexico MPS 36793
2001 09 19.37751 01 46 44.46 +05 27 32.6 18.6   704 – Lincoln Laboratory ETS, New Mexico MPS 36793
2001 09 19.39189 01 46 44.21 +05 27 24.9 18.9   704 – Lincoln Laboratory ETS, New Mexico MPS 36793
2001 09 21.32644 01 46 04.18 +05 10 06.4 19.0   704 – Lincoln Laboratory ETS, New Mexico MPS 36793
2001 09 21.34118 01 46 03.77 +05 09 58.9 19.1   704 – Lincoln Laboratory ETS, New Mexico MPS 36793
2001 09 21.35520 01 46 03.42 +05 09 50.5 19.6   704 – Lincoln Laboratory ETS, New Mexico MPS 36793
2001 09 27.31203 01 43 30.72 +04 13 42.1 19.7   644 – Palomar Mountain/NEAT MPS 36793
2001 09 27.33362 01 43 30.02 +04 13 28.9 19.8   644 – Palomar Mountain/NEAT MPS 36793
2001 09 27.35508 01 43 29.35 +04 13 16.5 19.1   644 – Palomar Mountain/NEAT MPS 36793
2001 10 12.26986 01 34 40.27 +01 42 38.7 18.5 R 699 – Lowell Observatory-LONEOS MPS 38281
2001 10 12.29325 01 34 39.33 +01 42 24.9   699 – Lowell Observatory-LONEOS MPS 38281
2001 10 12.31670 01 34 38.32 +01 42 10.3   699 – Lowell Observatory-LONEOS MPS 38281
2001 10 12.34021 01 34 37.33 +01 41 55.9   699 – Lowell Observatory-LONEOS MPS 38281
2001 10 16.26184 01 31 58.22 +01 02 36.4 18.5   704 – Lincoln Laboratory ETS, New Mexico MPS 38281
2001 10 16.27843 01 31 57.53 +01 02 24.7 19.2   704 – Lincoln Laboratory ETS, New Mexico MPS 38281
2001 10 16.29624 01 31 56.79 +01 02 15.6 19.6   704 – Lincoln Laboratory ETS, New Mexico MPS 38281
2001 10 16.31210 01 31 56.09 +01 02 05.2 19.1   704 – Lincoln Laboratory ETS, New Mexico MPS 38281
2001 10 16.32876 01 31 55.36 +01 01 55.4 19.0   704 – Lincoln Laboratory ETS, New Mexico MPS 38281
2001 10 19.27619 01 29 54.61 +00 33 12.0 18.5 R 699 – Lowell Observatory-LONEOS MPS 40643
2001 10 19.29955 01 29 53.66 +00 32 58.8   699 – Lowell Observatory-LONEOS MPS 40643
2001 10 19.32298 01 29 52.58 +00 32 45.1   699 – Lowell Observatory-LONEOS MPS 40643
2001 10 19.34643 01 29 51.66 +00 32 31.9   699 – Lowell Observatory-LONEOS MPS 40643
2001 10 24.34192 01 26 29.81 -00 13 51.9 18.7   644 – Palomar Mountain/NEAT MPS 40643
2001 10 24.36298 01 26 28.93 -00 14 03.2 18.7   644 – Palomar Mountain/NEAT MPS 40643
2001 10 24.38404 01 26 28.06 -00 14 14.4 18.4   644 – Palomar Mountain/NEAT MPS 40643
2002 01 14.079800 01 38 15.107 -00 40 44.17 20.28 V 645 – Apache Point-Sloan Digital Sky Survey MPS 79930
2002 01 14.083272 01 38 15.309 -00 40 42.85 21.09   645 – Apache Point-Sloan Digital Sky Survey MPS 79930
2004 04 20.30697 14 21 03.31 -03 36 06.6 20.5 V 691 – Steward Observatory, Kitt Peak-Spacewatch MPS 107346
2004 04 20.33637 14 21 02.03 -03 35 55.7 20.5 V 691 – Steward Observatory, Kitt Peak-Spacewatch MPS 107346
2004 04 20.36370 14 21 00.82 -03 35 45.7 20.9 V 691 – Steward Observatory, Kitt Peak-Spacewatch MPS 107346
2004 05 10.93110 14 06 44.57 -01 44 43.9 20.4 R 599 – Campo Imperatore-CINEOS MPS 107346
2004 05 10.94247 14 06 44.17 -01 44 40.5 20.1 R 599 – Campo Imperatore-CINEOS MPS 107346
2004 05 10.95385 14 06 43.69 -01 44 37.6 19.7 R 599 – Campo Imperatore-CINEOS MPS 107346
2004 05 10.96517 14 06 43.18 -01 44 34.8 20.3 R 599 – Campo Imperatore-CINEOS MPS 107346
2006 08 15.47531 23 35 42.67 +03 28 40.4 19.4 R 644 – Palomar Mountain/NEAT MPS 175956
2006 08 15.48637 23 35 42.44 +03 28 36.7 19.7 R 644 – Palomar Mountain/NEAT MPS 175956
2006 08 15.49625 23 35 42.22 +03 28 33.5 19.5 R 644 – Palomar Mountain/NEAT MPS 175956
2006 08 20.31858 23 33 48.50 +03 00 07.6   691 – Steward Observatory, Kitt Peak-Spacewatch MPS 175956
2006 08 20.33591 23 33 48.03 +03 00 00.8   691 – Steward Observatory, Kitt Peak-Spacewatch MPS 175956
2006 08 20.35317 23 33 47.55 +02 59 54.4   691 – Steward Observatory, Kitt Peak-Spacewatch MPS 175956
2006 08 22.40252 23 32 51.31 +02 46 26.1 18.7 R 644 – Palomar Mountain/NEAT MPS 175956
2006 08 22.42389 23 32 50.69 +02 46 17.2 19.4 R 644 – Palomar Mountain/NEAT MPS 175956
2006 08 22.44489 23 32 50.14 +02 46 09.3 18.5 R 644 – Palomar Mountain/NEAT MPS 175956
2006 08 23.39190 23 32 22.68 +02 39 38.1 19.2 R 644 – Palomar Mountain/NEAT MPS 176871
2006 08 23.41312 23 32 22.05 +02 39 29.3 19.8 R 644 – Palomar Mountain/NEAT MPS 176871
2006 08 23.43421 23 32 21.39 +02 39 20.2 19.9 R 644 – Palomar Mountain/NEAT MPS 176871
2006 08 27.35452 23 30 18.85 +02 10 40.2 19.0 R 699 – Lowell Observatory-LONEOS MPS 176871
2006 08 27.37268 23 30 18.16 +02 10 31.9   699 – Lowell Observatory-LONEOS MPS 176871
2006 08 27.39090 23 30 17.52 +02 10 22.9   699 – Lowell Observatory-LONEOS MPS 176871
2006 08 27.40907 23 30 16.95 +02 10 13.9   699 – Lowell Observatory-LONEOS MPS 176871
2006 08 28.30157 23 29 47.14 +02 03 21.0 19.3 V 703 – Catalina Sky Survey MPS 176871
2006 08 28.31060 23 29 46.89 +02 03 17.0 19.2 V 703 – Catalina Sky Survey MPS 176871
2006 08 28.31971 23 29 46.53 +02 03 11.9 19.3 V 703 – Catalina Sky Survey MPS 176871
2006 08 28.32877 23 29 46.21 +02 03 08.1 19.0 V 703 – Catalina Sky Survey MPS 176871
2006 09 12.35251 23 20 13.20 -00 09 08.7 19.0 V 703 – Catalina Sky Survey MPS 178268
2006 09 12.35730 23 20 12.98 -00 09 11.9 19.2 V 703 – Catalina Sky Survey MPS 178268
2006 09 12.36208 23 20 12.76 -00 09 15.2 19.0 V 703 – Catalina Sky Survey MPS 178268
2006 09 12.36692 23 20 12.58 -00 09 17.6 18.8 V 703 – Catalina Sky Survey MPS 178268
2006 09 13.25453 23 19 36.68 -00 17 47.4 18.3 R 644 – Palomar Mountain/NEAT MPS 179126
2006 09 13.28271 23 19 35.48 -00 18 03.7 18.5 R 644 – Palomar Mountain/NEAT MPS 179126
2006 09 13.30449 23 19 34.55 -00 18 16.3 18.8 R 644 – Palomar Mountain/NEAT MPS 179126
2006 09 18.22908 23 16 14.42 -01 06 03.4 19.1   704 – Lincoln Laboratory ETS, New Mexico MPS 179126
2006 09 18.24059 23 16 13.92 -01 06 09.4 19.3   704 – Lincoln Laboratory ETS, New Mexico MPS 179126
2006 09 18.25214 23 16 13.45 -01 06 16.1 19.7   704 – Lincoln Laboratory ETS, New Mexico MPS 179126
2006 09 18.26360 23 16 13.03 -01 06 22.5 19.3   704 – Lincoln Laboratory ETS, New Mexico MPS 179126
2006 09 18.27507 23 16 12.42 -01 06 29.3 19.4   704 – Lincoln Laboratory ETS, New Mexico MPS 179126
2006 09 19.22166 23 15 34.52 -01 15 44.1 18.4 V 703 – Catalina Sky Survey MPS 179126
2006 09 19.23293 23 15 34.05 -01 15 51.1 18.2 V 703 – Catalina Sky Survey MPS 179126
2006 09 19.24426 23 15 33.66 -01 15 58.5 18.4 V 703 – Catalina Sky Survey MPS 179126
2006 09 19.25554 23 15 33.12 -01 16 05.0 18.6 V 703 – Catalina Sky Survey MPS 179126
2006 09 25.26117 23 11 39.83 -02 14 28.8 18.7 R 699 – Lowell Observatory-LONEOS MPS 180809
2006 09 25.28494 23 11 38.95 -02 14 42.8   699 – Lowell Observatory-LONEOS MPS 180809
2006 09 25.30871 23 11 38.01 -02 14 56.5   699 – Lowell Observatory-LONEOS MPS 180809
2006 09 25.33251 23 11 37.14 -02 15 10.7   699 – Lowell Observatory-LONEOS MPS 180809
2006 09 26.25293 23 11 03.22 -02 24 00.3 18.9 C 704 – Lincoln Laboratory ETS, New Mexico MPS 294351
2006 09 26.27776 23 11 02.30 -02 24 13.8 18.8 C 704 – Lincoln Laboratory ETS, New Mexico MPS 294351
2006 09 29.15921 23 09 19.74 -02 51 31.8 18.7   704 – Lincoln Laboratory ETS, New Mexico MPS 182476
2006 09 29.17145 23 09 19.32 -02 51 39.1 19.5   704 – Lincoln Laboratory ETS, New Mexico MPS 182476
2006 09 29.18354 23 09 18.87 -02 51 46.9 19.5   704 – Lincoln Laboratory ETS, New Mexico MPS 182476
2006 09 29.19566 23 09 18.35 -02 51 53.0 19.5   704 – Lincoln Laboratory ETS, New Mexico MPS 182476
2006 09 29.20786 23 09 17.95 -02 52 00.1 19.7   704 – Lincoln Laboratory ETS, New Mexico MPS 182476
2006 09 30.22837 23 08 43.27 -03 01 32.1 18.7   704 – Lincoln Laboratory ETS, New Mexico MPS 182476
2006 09 30.25309 23 08 42.27 -03 01 44.1 19.6   704 – Lincoln Laboratory ETS, New Mexico MPS 182476
2006 09 30.26545 23 08 41.89 -03 01 51.4 19.8   704 – Lincoln Laboratory ETS, New Mexico MPS 182476
